Find Starlink 11097

NORAD ID: 59759 Int'l Des: 2024-091 Owner: SPXS Country: US Constellation: starlink operational
別名: STARLINK-11097 [DTC] celestrak
LEOCIRCULAR

現在のビュー

3D地球を読み込み中...

About Starlink 11097

Starlink 11097 (NORAD 59759) is a starlink constellation satellite (v2 mini d2c) launched May 14, 2024 by SPXS of US. It operates in LEO, CIRCULAR orbit with a mass of 960.00 kg.

次回通過

Passes for default location (London). Set your location on the main map for personalized predictions.

高度履歴

Loading altitude history...

軌道要素

1 59759U 24091G 26264.41038846 -.00000884 00000-0 -24390-5 0 9990
2 59759 53.1590 321.4139 0000908 115.7652 244.3460 15.69703178136254
Epoch: Sep 21, 2026 • Age: 27 hours

現在のステータス

高度 375.4 km
遠地点 / 近地点 N/A
速度 7.68 km/s
衛星直下点 -44.50°S, 70.89°E
打ち上げ日 May 14, 2024
運用期間 2.3 years
タイプ internet

技術仕様

分類 Payload
質量 960.00 kg
乾燥質量 910.00 kg
長さ 0.30 m
スパン 29.00 m
形状 ? Box + pan
製造者 SPXS
バスタイプ Starlink V2MD
フェーズステータス In Orbit
所有者/国 SPXS/US

Most Searched